Gardner, KS

9:00 AM CDT on August 26, 2016 (GMT -0500)
New Century Aircenter

Weather History for KIXD - July, 2013

Change the Weather History Date:

Wednesday, July 10, 2013

  Actual Average Record
Temperature  
Mean Temperature 84 °F -  
Max Temperature 93 °F 86 °F 102 °F (2011)
Min Temperature 71 °F 66 °F 55 °F (1996)
Cooling Degree Days 19    
Growing Degree Days 34 (Base 50)    
Moisture  
Dew Point 64 °F    
Average Humidity 54    
Maximum Humidity 73    
Minimum Humidity 27    
Precipitation  
Precipitation 0.00 in - - ()
Sea Level Pressure  
Sea Level Pressure 29.97 in    
Wind  
Wind Speed 9 mph (North)    
Max Wind Speed 16 mph    
Max Gust Speed 24 mph    
Visibility 10 miles    
Events      
Averages and records for this station are not official NWS values.
T = Trace of Precipitation, MM = Missing Value Source: NWS Daily Summary

Daily Weather History Graph

Daily Weather History Graph

Search for Another Location

Airport or City:

Trip Planner

Search our weather history database for the weather conditions in past years. The results will help you decide how hot, cold, wet, or windy it might be!

Date:

Astronomy

Jul. 10, 2013 Rise Set
Actual Time 6:03 AM CDT 8:46 PM CDT
Civil Twilight 5:32 AM CDT 9:17 PM CDT
Nautical Twilight 4:52 AM CDT 9:56 PM CDT
Astronomical Twilight 4:08 AM CDT 10:41 PM CDT
Moon 8:23 AM CDT (7/10) 9:58 PM CDT (7/10)
Length of Visible Light 15h 45m
Length of Day
14h 42m
Waxing Crescent, 5% of the Moon is Illuminated
Jul 10
Waxing Crescent
Jul 15
First Quarter
Jul 22
Full
Jul 29
Last Quarter
Aug 6
New

Hourly Weather History & Observations

Time (CDT) Temp. Heat Index Dew Point Humidity Pressure Visibility Wind Dir Wind Speed Gust Speed Precip Events Conditions
12:53 AM 87.1 °F 90.6 °F 68.0 °F 53% 29.91 in 10.0 mi WSW 16.1 mph 24.2 mph N/A   Clear
1:53 AM 84.0 °F 84.9 °F 63.0 °F 49% 29.88 in 10.0 mi WSW 5.8 mph - N/A   Clear
2:53 AM 82.0 °F 83.1 °F 63.0 °F 52% 29.92 in 10.0 mi South 9.2 mph 18.4 mph N/A   Clear
3:53 AM 78.1 °F - 64.0 °F 62% 29.93 in 10.0 mi North 4.6 mph - N/A   Partly Cloudy
4:53 AM 78.1 °F - 64.9 °F 64% 29.93 in 10.0 mi East 5.8 mph - N/A   Partly Cloudy
5:53 AM 75.0 °F - 64.9 °F 71% 29.93 in 10.0 mi North 9.2 mph - N/A   Clear
6:53 AM 78.1 °F - 63.0 °F 60% 29.96 in 10.0 mi NNW 9.2 mph - N/A   Clear
7:53 AM 81.0 °F 82.7 °F 64.9 °F 58% 29.97 in 10.0 mi WNW 5.8 mph - N/A   Clear
8:53 AM 82.9 °F 85.8 °F 68.0 °F 60% 29.97 in 10.0 mi NNW 4.6 mph - N/A   Clear
9:53 AM 84.9 °F 89.4 °F 70.0 °F 61% 29.99 in 10.0 mi NNE 4.6 mph - N/A   Clear
10:53 AM 86.0 °F 90.7 °F 70.0 °F 59% 30.01 in 10.0 mi Variable 6.9 mph - N/A   Mostly Cloudy
11:53 AM 87.1 °F 92.0 °F 70.0 °F 57% 30.02 in 9.0 mi NE 9.2 mph - N/A   Mostly Cloudy
12:53 PM 87.1 °F 92.0 °F 70.0 °F 57% 30.01 in 10.0 mi NNE 10.4 mph - N/A   Scattered Clouds
1:53 PM 90.0 °F 94.5 °F 69.1 °F 50% 30.00 in 10.0 mi North 10.4 mph - N/A   Clear
2:53 PM 91.9 °F 96.9 °F 69.1 °F 47% 29.99 in 10.0 mi NNE 11.5 mph - N/A   Clear
3:53 PM 93.0 °F 92.0 °F 57.9 °F 31% 29.99 in 10.0 mi North 12.7 mph - N/A   Clear
4:53 PM 93.0 °F 90.8 °F 54.0 °F 27% 29.98 in 10.0 mi North 10.4 mph - N/A   Clear
5:53 PM 91.0 °F 89.7 °F 57.0 °F 32% 29.96 in 10.0 mi North 11.5 mph - N/A   Clear
6:53 PM 89.1 °F 88.2 °F 59.0 °F 36% 29.95 in 10.0 mi NNE 9.2 mph - N/A   Clear
7:53 PM 86.0 °F 86.3 °F 62.1 °F 44% 29.96 in 10.0 mi NNE 5.8 mph - N/A   Clear
8:53 PM 75.9 °F - 63.0 °F 64% 29.97 in 10.0 mi North 6.9 mph - N/A   Clear
9:53 PM 75.0 °F - 64.0 °F 69% 29.99 in 10.0 mi NNE 3.5 mph - N/A   Clear
10:53 PM 75.0 °F - 63.0 °F 66% 30.00 in 10.0 mi NNE 5.8 mph - N/A   Clear
11:53 PM 71.1 °F - 62.1 °F 73% 30.01 in 10.0 mi NNE 4.6 mph - N/A   Clear